DAAGDAOB

Guest
Details From DAAG - Alger Houari Boumediene
To DAOB - BOU CHEKIF
Flight Number -
Tags generated
Created
Modified
Stats Distance 133 nm / 246 km
Max Altitude 17,600 ft / 5,364 m
Waypoints 3
Social Downloads 1
Likes 0
Share VATSIM

Download

Looking for another format? Having issues loading an existing format? Contact us
Advertisement - Login to hide

Notes

Basic altitude profile: - Ascent Rate: 2500ft/min - Ascent Speed: 250kts - Cruise Altitude: 35000ft - Cruise Speed: 420kts - Descent Rate: 1500ft/min - Descent Speed: 250kts Options: - Use NATs: yes - Use PACOTS: yes - Use low airways: yes - Use high airways: yes

Route

DAAG CHE DAOB

ID Type Via Altitude Latitude Longitude Leg Dist Tot Dist Heading (true) Name
O DAAG APT - 0 ft / 0 m 36.69752˚ 3.21308˚ - 0 nm - Alger Houari Boumediene
CHE NDB - 17,600 ft / 5,364 m 36.60139˚ 2.19333˚ 49 nm 49 nm 264° / 263° CHERCHELL NDB
O DAOB APT - 0 ft / 0 m 35.34114˚ 1.46315˚ 83 nm 133 nm 205° / 205° BOU CHEKIF

Altitude Profile

Advertisement - Login to hide

DAAG

Details ICAO DAAG (ALG)
Name Alger Houari Boumediene
Region Algeria
Timezone Africa/Algiers (UTC+1.0)
Stats Elevation 82 ft / 25 m (AMSL)
Location 36.697521° 3.213079°
Runways 2
Magnetic Variation 1.094° E

METAR

DAAG 231130Z 36006KT 8000 NSC 27/19 Q1015

Decode

TAF

TAF TAF DAAG 230500Z 2306/2406 VRB02KT 6000 FEW020 TEMPO 2306/2309 3000 BR PROB30 TEMPO 2306/2309 0900 FG BKN008 BECMG 2310/2313 02014KT PROB30 TEMPO 2312/2317 07015G25KT BECMG 2320/2323 VRB02KT

Decode

Departure Runways

ID Width Length Bearing (true) Bearing (mag) Surface Threshold Offset Overrun Length
05 197 ft / 60 m 11,459 ft / 3,493 m 52.87° 51.78° Asphalt 0 ft / 0 m 0 ft / 0 m
09 148 ft / 45 m 11,442 ft / 3,487 m 91.75° 90.66° Asphalt 0 ft / 0 m 1,017 ft / 310 m
23 197 ft / 60 m 11,459 ft / 3,493 m 232.89° 231.80° Asphalt 0 ft / 0 m 0 ft / 0 m
27 148 ft / 45 m 11,442 ft / 3,487 m 271.78° 270.69° Asphalt 0 ft / 0 m 0 ft / 0 m

DAOB

Details ICAO DAOB (TID)
Name BOU CHEKIF
Region Algeria
Timezone Africa/Algiers (UTC+1.0)
Stats Elevation 3,245 ft / 989 m (AMSL)
Location 35.341136° 1.463147°
Runways 1
Magnetic Variation 0.673° E

METAR

DAOB 231100Z 13015KT CAVOK 23/11 Q1019

Decode

TAF

TAF DAOB 230500Z 2306/2406 16012KT CAVOK PROB40 2308/2315 19022KT 4000 DRSA PROB30 TEMPO 2309/2314 18022G32KT 2000 BLSA

Decode

Destination Runways

ID Width Length Bearing (true) Bearing (mag) Surface Threshold Offset Overrun Length
08 148 ft / 45 m 9,810 ft / 2,990 m 81.23° 80.56° Asphalt 0 ft / 0 m 198 ft / 60 m
26 148 ft / 45 m 9,810 ft / 2,990 m 261.25° 260.58° Asphalt 0 ft / 0 m 198 ft / 60 m

Popular Alternatives